When you browse on this site, cookies collect data to enhance your experience and personalize the content and advertising you see.
Visit our Privacy Policy to learn more. By continuing to use the site, you agree to this use of cookies and data.
  • In Netherlands
  • List of Countries
  • For 7 days
  • Water Temperature
  • Weather Map
  • Weather Widgets
  • user-avatar
    Login

    Hourly Weather Starica

    Today, 27 May, Wednesday

    Time Temperature Precipitation Wind Pressure Humidity
    00:00 +9°C° 0 mm 0 mps 752 mmHg 83%
    01:00 +10°C° 0 mm 1 mps 752 mmHg 83%
    02:00 +10°C° 0 mm 1 mps 751 mmHg 83%
    03:00 +11°C° 0 mm 1 mps 751 mmHg 83%
    04:00 +11°C° 0 mm 1 mps 751 mmHg 83%
    05:00 +10°C° 0 mm 0 mps 751 mmHg 83%
    06:00 +12°C° 0 mm 0 mps 751 mmHg 77%
    07:00 +13°C° 0 mm 0 mps 751 mmHg 71%
    08:00 +15°C° 0 mm 0 mps 751 mmHg 65%
    09:00 +16°C° 0.2 mm 0 mps 751 mmHg 61%
    10:00 +17°C° 0.2 mm 0 mps 751 mmHg 57%
    11:00 +20°C° 0.2 mm 1 mps 751 mmHg 53%
    12:00 +20°C° 0.1 mm 1 mps 750 mmHg 52%
    13:00 +20°C° 0.1 mm 1 mps 750 mmHg 51%
    14:00 +20°C° 0.1 mm 1 mps 750 mmHg 50%
    15:00 +19°C° 0.1 mm 1 mps 750 mmHg 54%
    16:00 +19°C° 0.1 mm 1 mps 750 mmHg 58%
    17:00 +19°C° 0.1 mm 1 mps 749 mmHg 62%
    18:00 +16°C° 0.1 mm 1 mps 749 mmHg 68%
    19:00 +15°C° 0.1 mm 1 mps 749 mmHg 74%
    20:00 +13°C° 0.1 mm 1 mps 749 mmHg 79%
    21:00 +12°C° 0 mm 1 mps 749 mmHg 81%
    22:00 +12°C° 0 mm 1 mps 749 mmHg 83%
    23:00 +11°C° 0 mm 1 mps 749 mmHg 84%

    Tomorrow, 28 May, Thursday

    Time Temperature Precipitation Wind Pressure Humidity
    00:00 +11°C° 0 mm 1 mps 749 mmHg 86%
    01:00 +10°C° 0 mm 1 mps 749 mmHg 87%
    02:00 +10°C° 0 mm 1 mps 749 mmHg 89%
    03:00 +10°C° 0 mm 1 mps 749 mmHg 88%
    04:00 +11°C° 0 mm 1 mps 749 mmHg 88%
    05:00 +11°C° 0 mm 1 mps 749 mmHg 87%
    06:00 +13°C° 0 mm 1 mps 749 mmHg 80%
    07:00 +15°C° 0 mm 1 mps 749 mmHg 73%
    08:00 +18°C° 0 mm 1 mps 749 mmHg 65%
    09:00 +19°C° 0 mm 1 mps 749 mmHg 60%
    10:00 +19°C° 0 mm 2 mps 749 mmHg 54%
    11:00 +20°C° 0 mm 2 mps 748 mmHg 49%
    12:00 +20°C° 0 mm 2 mps 748 mmHg 49%
    13:00 +20°C° 0 mm 2 mps 748 mmHg 48%
    14:00 +21°C° 0 mm 2 mps 748 mmHg 48%
    15:00 +20°C° 0.1 mm 2 mps 747 mmHg 52%
    16:00 +21°C° 0.1 mm 1 mps 747 mmHg 57%
    17:00 +20°C° 0.1 mm 1 mps 747 mmHg 61%
    18:00 +19°C° 0 mm 1 mps 747 mmHg 68%
    19:00 +16°C° 0 mm 1 mps 747 mmHg 74%
    20:00 +14°C° 0 mm 1 mps 747 mmHg 80%
    21:00 +14°C° 0 mm 1 mps 747 mmHg 82%
    22:00 +13°C° 0 mm 1 mps 747 mmHg 84%
    23:00 +13°C° 0 mm 1 mps 747 mmHg 86%

    Day after tomorrow, 29 May, Friday

    Time Temperature Precipitation Wind Pressure Humidity
    00:00 +12°C° 0 mm 1 mps 747 mmHg 88%
    01:00 +12°C° 0 mm 1 mps 747 mmHg 90%
    02:00 +12°C° 0 mm 1 mps 746 mmHg 93%
    03:00 +12°C° 0.1 mm 1 mps 746 mmHg 93%
    04:00 +12°C° 0.1 mm 2 mps 746 mmHg 93%
    05:00 +13°C° 0.1 mm 2 mps 746 mmHg 93%
    06:00 +13°C° 0.1 mm 2 mps 745 mmHg 93%
    07:00 +12°C° 0.1 mm 3 mps 745 mmHg 92%
    08:00 +12°C° 0.1 mm 3 mps 744 mmHg 92%
    09:00 +12°C° 1.3 mm 3 mps 744 mmHg 93%
    10:00 +12°C° 1.3 mm 4 mps 744 mmHg 94%
    11:00 +12°C° 1.3 mm 4 mps 744 mmHg 95%
    12:00 +12°C° 1.3 mm 4 mps 743 mmHg 95%
    13:00 +13°C° 1.3 mm 4 mps 743 mmHg 95%
    14:00 +13°C° 1.3 mm 4 mps 743 mmHg 95%
    15:00 +13°C° 0 mm 4 mps 743 mmHg 95%
    16:00 +14°C° 0 mm 4 mps 743 mmHg 95%
    17:00 +14°C° 0 mm 4 mps 742 mmHg 94%
    18:00 +14°C° 0.1 mm 4 mps 742 mmHg 95%
    19:00 +13°C° 0.1 mm 4 mps 742 mmHg 96%
    20:00 +13°C° 0.1 mm 3 mps 742 mmHg 97%
    21:00 +13°C° 0.2 mm 4 mps 742 mmHg 96%
    22:00 +13°C° 0.2 mm 4 mps 742 mmHg 96%
    23:00 +13°C° 0.2 mm 4 mps 742 mmHg 96%

    30 May, Saturday

    Time Temperature Precipitation Wind Pressure Humidity
    00:00 +13°C° 0.4 mm 4 mps 742 mmHg 96%
    01:00 +14°C° 0.4 mm 4 mps 742 mmHg 97%
    02:00 +14°C° 0.4 mm 4 mps 741 mmHg 97%
    03:00 +14°C° 0.3 mm 4 mps 741 mmHg 96%
    04:00 +14°C° 0.3 mm 4 mps 742 mmHg 96%
    05:00 +14°C° 0.3 mm 5 mps 742 mmHg 96%
    06:00 +15°C° 0.2 mm 5 mps 742 mmHg 96%
    07:00 +15°C° 0.2 mm 5 mps 742 mmHg 96%
    08:00 +15°C° 0.2 mm 5 mps 742 mmHg 96%
    09:00 +15°C° 0.4 mm 5 mps 742 mmHg 96%
    10:00 +15°C° 0.4 mm 5 mps 743 mmHg 96%
    11:00 +15°C° 0.4 mm 5 mps 743 mmHg 97%
    12:00 +15°C° 0.2 mm 5 mps 743 mmHg 96%
    13:00 +15°C° 0.2 mm 5 mps 743 mmHg 95%
    14:00 +15°C° 0.2 mm 5 mps 743 mmHg 95%
    15:00 +15°C° 0 mm 5 mps 743 mmHg 94%
    16:00 +15°C° 0 mm 5 mps 743 mmHg 92%
    17:00 +15°C° 0 mm 6 mps 743 mmHg 91%
    18:00 +15°C° 0 mm 6 mps 743 mmHg 89%
    19:00 +15°C° 0 mm 6 mps 743 mmHg 87%
    20:00 +15°C° 0 mm 6 mps 743 mmHg 85%
    21:00 +15°C° 0 mm 6 mps 743 mmHg 84%
    22:00 +15°C° 0 mm 6 mps 743 mmHg 83%
    23:00 +15°C° 0 mm 6 mps 744 mmHg 82%

    31 May, Sunday

    Time Temperature Precipitation Wind Pressure Humidity
    00:00 +14°C° 0 mm 6 mps 743 mmHg 81%
    01:00 +13°C° 0 mm 6 mps 743 mmHg 81%
    02:00 +12°C° 0 mm 7 mps 743 mmHg 80%
    03:00 +11°C° 0 mm 7 mps 744 mmHg 79%
    04:00 +11°C° 0 mm 7 mps 744 mmHg 78%
    05:00 +10°C° 0 mm 7 mps 744 mmHg 77%
    06:00 +11°C° 0 mm 7 mps 744 mmHg 71%
    07:00 +12°C° 0 mm 8 mps 744 mmHg 65%
    08:00 +13°C° 0 mm 8 mps 744 mmHg 58%
    09:00 +15°C° 0 mm 8 mps 745 mmHg 55%
    10:00 +16°C° 0 mm 8 mps 745 mmHg 51%
    11:00 +17°C° 0 mm 8 mps 745 mmHg 48%
    12:00 +17°C° 0 mm 8 mps 745 mmHg 48%
    13:00 +17°C° 0 mm 8 mps 745 mmHg 47%
    14:00 +18°C° 0 mm 7 mps 745 mmHg 47%
    15:00 +17°C° 0 mm 7 mps 745 mmHg 50%
    16:00 +17°C° 0 mm 6 mps 745 mmHg 52%
    17:00 +16°C° 0 mm 6 mps 746 mmHg 55%
    18:00 +15°C° 0 mm 5 mps 746 mmHg 60%
    19:00 +13°C° 0 mm 4 mps 747 mmHg 65%
    20:00 +12°C° 0 mm 4 mps 747 mmHg 71%
    21:00 +11°C° 0 mm 4 mps 747 mmHg 72%
    22:00 +11°C° 0 mm 4 mps 748 mmHg 73%
    23:00 +10°C° 0 mm 4 mps 748 mmHg 74%

    1 June, Monday

    Time Temperature Precipitation Wind Pressure Humidity
    00:00 +9°C° 0 mm 3 mps 749 mmHg 76%
    01:00 +8°C° 0 mm 3 mps 749 mmHg 78%
    02:00 +7°C° 0 mm 3 mps 749 mmHg 80%
    03:00 +8°C° 0 mm 3 mps 750 mmHg 79%
    04:00 +8°C° 0 mm 3 mps 750 mmHg 77%
    05:00 +8°C° 0 mm 3 mps 750 mmHg 76%
    06:00 +10°C° 0 mm 3 mps 750 mmHg 69%
    07:00 +11°C° 0 mm 3 mps 751 mmHg 61%
    08:00 +13°C° 0 mm 3 mps 751 mmHg 54%
    09:00 +14°C° 0 mm 3 mps 751 mmHg 53%
    10:00 +16°C° 0 mm 3 mps 751 mmHg 52%
    11:00 +17°C° 0 mm 3 mps 751 mmHg 50%
    12:00 +18°C° 0 mm 3 mps 750 mmHg 51%
    13:00 +19°C° 0 mm 3 mps 750 mmHg 51%
    14:00 +20°C° 0 mm 3 mps 750 mmHg 51%
    15:00 +20°C° 0 mm 3 mps 750 mmHg 54%
    16:00 +19°C° 0 mm 3 mps 749 mmHg 57%
    17:00 +19°C° 0 mm 3 mps 749 mmHg 60%
    18:00 +18°C° 0 mm 3 mps 749 mmHg 66%
    19:00 +16°C° 0 mm 2 mps 749 mmHg 72%
    20:00 +15°C° 0 mm 2 mps 749 mmHg 78%
    21:00 +14°C° 0 mm 2 mps 749 mmHg 80%
    22:00 +14°C° 0 mm 2 mps 749 mmHg 82%
    23:00 +12°C° 0 mm 3 mps 749 mmHg 84%
    Show more